📊 Raw Sensor Data
Showing records 51501 to 51525 of 85,149 total
| ID | Distance (ft) | Battery V | Battery A | Int Temp (°F) | Int Humid (%) | Ext Temp (°F) | Solar V | RSSI | SNR | Time Stamp |
|---|---|---|---|---|---|---|---|---|---|---|
| 33661 | 14.9 | 4.08 | 0 | 53 | 35 | 58 | 5.10 | -75 | 7 | 02/28/2025 08:45 AM |
| 33660 | 14.9 | 3.96 | 0 | 52 | 35 | 56 | 5.10 | -75 | 8 | 02/28/2025 08:30 AM |
| 33659 | 14.9 | 3.97 | 7 | 50 | 35 | 56 | 5.10 | -75 | 8 | 02/28/2025 08:15 AM |
| 33658 | 14.9 | 3.96 | 7 | 48 | 36 | 54 | 5.10 | -76 | 8 | 02/28/2025 08:00 AM |
| 33657 | 14.8 | 3.97 | 0 | 46 | 36 | 50 | 5.00 | -76 | 8 | 02/28/2025 07:45 AM |
| 33656 | 14.8 | 4.04 | 42 | 44 | 37 | 47 | 4.50 | -76 | 8 | 02/28/2025 07:30 AM |
| 33655 | 14.8 | 4.01 | 6 | 43 | 37 | 44 | 4.50 | -76 | 8 | 02/28/2025 07:15 AM |
| 33654 | 14.8 | 3.95 | 11 | 44 | 37 | 48 | 4.50 | -76 | 8 | 02/28/2025 07:00 AM |
| 33653 | 14.8 | 3.89 | -7 | 42 | 37 | 46 | 4.50 | -76 | 8 | 02/28/2025 06:45 AM |
| 33652 | 14.8 | 3.94 | -10 | 42 | 37 | 45 | 4.30 | -76 | 9 | 02/28/2025 06:30 AM |
| 33651 | 14.8 | 3.89 | -5 | 42 | 38 | 48 | 0.40 | -76 | 8 | 02/28/2025 06:15 AM |
| 33650 | 14.8 | 3.89 | -5 | 41 | 38 | 43 | 0.00 | -76 | 8 | 02/28/2025 06:00 AM |
| 33649 | 14.8 | 3.89 | -5 | 41 | 38 | 42 | 0.10 | -76 | 8 | 02/28/2025 05:45 AM |
| 33648 | 14.8 | 3.90 | -5 | 41 | 38 | 44 | 0.10 | -76 | 8 | 02/28/2025 05:30 AM |
| 33647 | 14.8 | 3.95 | -5 | 41 | 38 | 43 | 0.00 | -76 | 8 | 02/28/2025 05:15 AM |
| 33646 | 14.8 | 3.90 | -5 | 41 | 38 | 42 | 0.00 | -76 | 8 | 02/28/2025 05:00 AM |
| 33645 | 14.8 | 3.90 | -5 | 42 | 38 | 43 | 0.00 | -76 | 8 | 02/28/2025 04:45 AM |
| 33644 | 14.8 | 3.95 | -5 | 43 | 38 | 43 | 0.00 | -76 | 8 | 02/28/2025 04:30 AM |
| 33643 | 14.8 | 3.90 | -5 | 44 | 38 | 44 | 0.00 | -75 | 8 | 02/28/2025 04:15 AM |
| 33642 | 14.8 | 3.90 | -5 | 44 | 38 | 46 | 0.00 | -77 | 8 | 02/28/2025 04:00 AM |
| 33641 | 14.8 | 3.90 | -5 | 44 | 38 | 46 | 0.10 | -76 | 8 | 02/28/2025 03:45 AM |
| 33640 | 14.8 | 3.90 | -5 | 44 | 38 | 46 | 0.00 | -77 | 8 | 02/28/2025 03:30 AM |
| 33639 | 14.8 | 3.90 | -5 | 43 | 39 | 46 | 0.00 | -76 | 8 | 02/28/2025 03:15 AM |
| 33638 | 14.8 | 3.96 | -5 | 44 | 39 | 43 | 0.00 | -75 | 8 | 02/28/2025 02:45 AM |
| 33637 | 14.8 | 3.90 | -5 | 44 | 39 | 44 | 0.00 | -76 | 8 | 02/28/2025 02:30 AM |